Location: Unspecified
(0.0000°N, 0.0000°E)
Time: 05:07:40
(UTC+00:00)

METEOR M2 - Pass Details

Date: 30 May 2024
Orbit: 817 x 826 km, 98.4° (Epoch: 13 June)

Event Time Altitude Azimuth Distance (km) Brightness Sun altitude
Rises 04:13:46 0° 38° (NE) 3,341 ? -24.0°
Reaches altitude 10° 04:16:36 10° 53° (NE) 2,413 ? -23.3°
Maximum altitude 04:20:39 22° 103° (ESE) 1,721 ? -22.4°
Drops below altitude 10° 04:24:43 10° 152° (SSE) 2,425 ? -21.5°
Sets 04:27:34 0° 167° (SSE) 3,361 ? -20.8°
